timestamp,surface_pressure_avg,surface_temp_avg,battery_voltage,lat,long
2023-04-24 00:09:00+00:00,314.6647,1.1,12.73,47.84626,-54.09684
2023-04-24 00:19:00+00:00,321.8563,1.0,12.73,47.84626,-54.09684
2023-04-24 00:29:00+00:00,328.2164,0.7,12.73,47.84626,-54.09684
2023-04-24 00:39:00+00:00,333.7246,0.69,12.73,47.84626,-54.09684
2023-04-24 00:49:00+00:00,337.6996,0.93,12.73,47.84626,-54.09684
2023-04-24 00:59:00+00:00,341.5963,0.9,12.73,47.84626,-54.09684
2023-04-24 01:09:00+00:00,344.1279,0.8,12.73,47.84626,-54.09684
2023-04-24 01:19:00+00:00,346.4813,0.7,12.65,47.84626,-54.09684
2023-04-24 01:29:00+00:00,346.3362,0.7,12.65,47.84626,-54.09684
2023-04-24 01:39:00+00:00,346.8297,0.6,12.65,47.84626,-54.09684
2023-04-24 01:49:00+00:00,347.7946,0.62,12.65,47.84626,-54.09684
2023-04-24 01:59:00+00:00,349.2729,0.7,12.65,47.84626,-54.09684
2023-04-24 02:09:00+00:00,350.0413,0.8,12.65,47.84626,-54.09684
2023-04-24 02:19:00+00:00,350.9146,1.0,12.65,47.84626,-54.09684
2023-04-24 02:29:00+00:00,353.4679,1.0,12.65,47.84626,-54.09684
2023-04-24 02:39:00+00:00,355.5212,1.03,12.65,47.84626,-54.09684
2023-04-24 02:49:00+00:00,353.1946,1.17,12.65,47.84626,-54.09684
2023-04-24 02:59:00+00:00,350.5146,0.8,12.65,47.84626,-54.09684
2023-04-24 03:09:00+00:00,350.8363,0.83,12.65,47.84626,-54.09684
2023-04-24 03:19:00+00:00,351.0229,0.9,12.65,47.84626,-54.09684
2023-04-24 03:29:00+00:00,345.9946,0.97,12.65,47.84626,-54.09684
2023-04-24 03:39:00+00:00,342.9279,0.9,12.65,47.84626,-54.09684
2023-04-24 03:49:00+00:00,342.9213,0.78,12.65,47.84626,-54.09684
2023-04-24 03:59:00+00:00,338.7863,0.74,12.65,47.84626,-54.09684
2023-04-24 04:09:00+00:00,331.3864,0.8,12.65,47.84626,-54.09684
2023-04-24 04:19:00+00:00,327.4446,0.7,12.57,47.84626,-54.09684
2023-04-24 04:29:00+00:00,326.133,0.7,12.57,47.84626,-54.09684
2023-04-24 04:39:00+00:00,317.9413,0.7,12.57,47.84626,-54.09684
2023-04-24 04:49:00+00:00,305.7313,0.7,12.57,47.84626,-54.09684
2023-04-24 04:59:00+00:00,298.8747,0.7,12.57,47.84626,-54.09684
2023-04-24 05:09:00+00:00,292.988,0.7,12.57,47.84626,-54.09684
2023-04-24 05:19:01+00:00,280.8764,0.7,12.57,47.84626,-54.09684
2023-04-24 05:29:01+00:00,269.3014,0.72,12.57,47.84626,-54.09684
2023-04-24 05:39:01+00:00,264.7847,0.77,12.57,47.84626,-54.09684
2023-04-24 05:49:01+00:00,256.8665,0.7,12.57,47.84626,-54.09684
2023-04-24 05:59:01+00:00,244.7614,0.7,12.57,47.84626,-54.09684
2023-04-24 06:09:01+00:00,236.3448,0.77,12.57,47.84626,-54.09684
2023-04-24 06:19:00+00:00,232.6398,0.7,12.57,47.84626,-54.09684
2023-04-24 06:29:00+00:00,225.1981,0.7,12.57,47.84626,-54.09684
2023-04-24 06:39:00+00:00,214.5448,0.76,12.57,47.84626,-54.09684
2023-04-24 06:49:00+00:00,208.3548,0.79,12.57,47.84626,-54.09684
2023-04-24 06:59:00+00:00,204.6715,0.8,12.57,47.84626,-54.09684
2023-04-24 07:09:00+00:00,198.5015,0.87,12.57,47.84626,-54.09684
2023-04-24 07:19:01+00:00,192.5081,1.05,12.57,47.84626,-54.09684
2023-04-24 07:29:01+00:00,190.1482,1.1,12.57,47.84626,-54.09684
2023-04-24 07:39:01+00:00,188.3748,1.1,12.57,47.84626,-54.09684
2023-04-24 07:49:01+00:00,184.9164,1.09,12.57,47.84626,-54.09684
2023-04-24 07:59:01+00:00,183.8898,1.0,12.57,47.84626,-54.09684
2023-04-24 08:09:01+00:00,187.2065,0.99,12.57,47.84626,-54.09684
2023-04-24 08:19:00+00:00,189.7098,0.95,12.57,47.84626,-54.09684
2023-04-24 08:29:00+00:00,190.5665,0.9,12.57,47.84626,-54.09684
2023-04-24 08:39:00+00:00,192.3315,0.9,12.57,47.84626,-54.09684
2023-04-24 08:49:00+00:00,197.0748,0.9,12.57,47.84626,-54.09684
2023-04-24 08:59:00+00:00,200.1948,0.95,12.57,47.84626,-54.09684
2023-04-24 09:09:00+00:00,201.0898,0.93,12.57,47.84626,-54.09684
2023-04-24 09:19:00+00:00,204.9648,0.9,12.57,47.84626,-54.09684
2023-04-24 09:29:00+00:00,211.1815,0.9,12.57,47.84626,-54.09684
2023-04-24 09:39:00+00:00,213.2965,0.9,12.57,47.84626,-54.09684
2023-04-24 09:49:00+00:00,214.5598,0.92,12.57,47.84626,-54.09684
2023-04-24 09:59:00+00:00,219.8698,0.93,12.57,47.84626,-54.09684
2023-04-24 10:09:00+00:00,225.7731,0.95,12.57,47.84626,-54.09684
2023-04-24 10:19:00+00:00,225.6048,0.9,12.57,47.84626,-54.09684
2023-04-24 10:29:00+00:00,224.8614,0.9,12.57,47.84626,-54.09684
2023-04-24 10:39:00+00:00,229.3331,0.9,12.57,47.84626,-54.09684
2023-04-24 10:49:00+00:00,233.8831,0.9,12.57,47.84626,-54.09684
2023-04-24 10:59:00+00:00,236.2147,0.9,12.57,47.84626,-54.09684
2023-04-24 11:09:00+00:00,238.2131,0.9,12.57,47.84626,-54.09684
2023-04-24 11:19:01+00:00,244.3664,0.9,12.65,47.84626,-54.09684
2023-04-24 11:29:01+00:00,248.5214,0.9,12.65,47.84626,-54.09684
2023-04-24 11:39:01+00:00,251.9231,0.9,12.65,47.84626,-54.09684
2023-04-24 11:49:01+00:00,256.4898,0.89,12.65,47.84626,-54.09684
2023-04-24 11:59:01+00:00,262.7698,0.88,12.65,47.84626,-54.09684
2023-04-24 12:09:01+00:00,267.4431,0.89,12.65,47.84626,-54.09684
2023-04-24 12:19:00+00:00,274.3415,0.9,12.73,47.84626,-54.09684
2023-04-24 12:29:00+00:00,283.4348,0.9,12.73,47.84626,-54.09684
2023-04-24 12:39:00+00:00,290.0197,0.8,12.73,47.84626,-54.09684
2023-04-24 12:49:00+00:00,295.3297,0.77,12.73,47.84626,-54.09684
2023-04-24 12:59:00+00:00,303.1797,0.79,12.73,47.84626,-54.09684
2023-04-24 13:09:00+00:00,309.323,0.79,12.73,47.84626,-54.09684
2023-04-24 13:19:00+00:00,311.4913,0.73,13.05,47.84626,-54.09684
2023-04-24 13:29:00+00:00,314.583,0.7,13.05,47.84626,-54.09684
2023-04-24 13:39:00+00:00,319.588,0.7,13.05,47.84626,-54.09684
2023-04-24 13:49:00+00:00,318.1564,0.7,13.05,47.84626,-54.09684
2023-04-24 13:59:00+00:00,316.4646,0.79,13.05,47.84626,-54.09684
2023-04-24 14:09:00+00:00,317.798,0.8,13.05,47.84626,-54.09684
2023-04-24 14:19:00+00:00,319.9197,0.88,13.44,47.84626,-54.09684
2023-04-24 14:29:00+00:00,317.8181,0.9,13.44,47.84626,-54.09684
2023-04-24 14:39:00+00:00,316.5097,0.9,13.44,47.84626,-54.09684
2023-04-24 14:49:00+00:00,317.7547,0.9,13.44,47.84626,-54.09684
2023-04-24 14:59:00+00:00,317.7629,0.9,13.44,47.84626,-54.09684
2023-04-24 15:09:00+00:00,315.2013,0.9,13.44,47.84626,-54.09684
2023-04-24 15:19:00+00:00,313.5513,0.9,13.68,47.84626,-54.09684
2023-04-24 15:29:00+00:00,313.5314,0.89,13.68,47.84626,-54.09684
2023-04-24 15:39:00+00:00,312.628,0.8,13.68,47.84626,-54.09684
2023-04-24 15:49:00+00:00,311.2897,0.7,13.68,47.84626,-54.09684
2023-04-24 15:59:00+00:00,309.903,0.77,13.68,47.84626,-54.09684
2023-04-24 16:09:00+00:00,306.3079,0.81,13.68,47.84626,-54.09684
2023-04-24 16:19:00+00:00,302.3447,1.0,13.84,47.84626,-54.09684
2023-04-24 16:29:00+00:00,300.0847,1.1,13.84,47.84626,-54.09684
2023-04-24 16:39:00+00:00,296.0397,1.13,13.84,47.84626,-54.09684
2023-04-24 16:49:00+00:00,289.2997,1.1,13.84,47.84626,-54.09684
2023-04-24 16:59:00+00:00,284.5514,0.96,13.84,47.84626,-54.09684
2023-04-24 17:09:00+00:00,280.0631,0.85,13.84,47.84626,-54.09684
2023-04-24 17:19:00+00:00,270.2397,1.13,13.92,47.84626,-54.09684
2023-04-24 17:29:00+00:00,260.4781,1.27,13.92,47.84626,-54.09684
2023-04-24 17:39:00+00:00,255.0897,1.0,13.92,47.84626,-54.09684
2023-04-24 17:49:00+00:00,248.4181,1.07,13.92,47.84626,-54.09684
2023-04-24 17:59:00+00:00,238.6664,1.1,13.92,47.84626,-54.09684
2023-04-24 18:09:00+00:00,231.1331,1.1,13.92,47.84626,-54.09684
2023-04-24 18:19:00+00:00,225.9031,1.06,13.84,47.84626,-54.09684
2023-04-24 18:29:00+00:00,218.1931,1.1,13.84,47.84626,-54.09684
2023-04-24 18:39:00+00:00,209.4531,1.1,13.84,47.84626,-54.09684
2023-04-24 18:49:00+00:00,204.8281,1.11,13.84,47.84626,-54.09684
2023-04-24 18:59:00+00:00,202.0048,1.2,13.84,47.84626,-54.09684
2023-04-24 19:09:00+00:00,199.1898,1.31,13.84,47.84626,-54.09684
2023-04-24 19:19:00+00:00,194.9598,1.4,13.76,47.84626,-54.09684
2023-04-24 19:29:00+00:00,192.2831,1.4,13.76,47.84626,-54.09684
2023-04-24 19:39:00+00:00,191.4965,1.4,13.76,47.84626,-54.09684
2023-04-24 19:49:00+00:00,190.4748,1.4,13.76,47.84626,-54.09684
2023-04-24 19:59:00+00:00,189.4631,1.5,13.76,47.84626,-54.09684
2023-04-24 20:09:00+00:00,189.6365,1.55,13.76,47.84626,-54.09684
2023-04-24 20:19:00+00:00,191.4215,1.61,13.6,47.84626,-54.09684
2023-04-24 20:29:00+00:00,194.0448,1.7,13.6,47.84626,-54.09684
2023-04-24 20:39:00+00:00,196.5115,1.7,13.6,47.84626,-54.09684
2023-04-24 20:49:00+00:00,198.5731,1.7,13.6,47.84626,-54.09684
2023-04-24 20:59:00+00:00,202.7448,1.7,13.6,47.84626,-54.09684
2023-04-24 21:09:00+00:00,207.7498,1.33,13.6,47.84626,-54.09684
2023-04-24 21:19:01+00:00,211.3148,1.53,13.29,47.84626,-54.09684
2023-04-24 21:29:01+00:00,215.3581,1.66,13.29,47.84626,-54.09684
2023-04-24 21:39:01+00:00,221.7798,1.7,13.29,47.84626,-54.09684
2023-04-24 21:49:01+00:00,227.4615,1.6,13.29,47.84626,-54.09684
2023-04-24 21:59:01+00:00,231.8514,1.55,13.29,47.84626,-54.09684
2023-04-24 22:09:01+00:00,236.5097,1.53,13.29,47.84626,-54.09684
2023-04-24 22:19:00+00:00,240.9864,1.55,12.97,47.84626,-54.09684
2023-04-24 22:29:00+00:00,244.4231,1.56,12.97,47.84626,-54.09684
2023-04-24 22:39:00+00:00,247.2864,1.6,12.97,47.84626,-54.09684
2023-04-24 22:49:00+00:00,251.0781,1.6,12.97,47.84626,-54.09684
2023-04-24 22:59:00+00:00,255.2997,1.59,12.97,47.84626,-54.09684
2023-04-24 23:09:00+00:00,258.5898,1.55,12.97,47.84626,-54.09684
2023-04-24 23:19:00+00:00,262.9464,1.55,12.81,47.84626,-54.09684
2023-04-24 23:29:00+00:00,268.0781,1.57,12.81,47.84626,-54.09684
2023-04-24 23:39:00+00:00,270.6031,1.56,12.81,47.84626,-54.09684
2023-04-24 23:49:00+00:00,273.4897,1.59,12.81,47.84626,-54.09684
2023-04-24 23:59:00+00:00,279.8998,1.6,12.81,47.84626,-54.09684
